Home   Weather   Klosterneuburg   Past weeks

Flag for Austria Past Weather in Klosterneuburg, Lower Austria, Austria — Yesterday and Last 2 Weeks

Now
51 °F

Cool.


Feels Like: 51 °F
Forecast: 46 / 70 °F
Wind: 2 mph from Northeast

Location: Wien / Hohe Warte

Current Time: Sep 27, 2016 at 4:09:51 AM

Latest Report: Sep 27, 2016 at 3:00 AM


Visibility: N/A

Pressure: 30.22 "Hg

Humidity: 91%

Dew Point: 49 °F

Location of KlosterneuburgLocation

Past Weather in Klosterneuburg — Graph

°F

Klosterneuburg Temperature Yesterday

Maximum temperature yesterday: 70 °F (at 4:00 PM)
Minimum temperature yesterday: 51 °F (at 7:00 AM)
Average temperature yesterday: 59 °F

High & Low Weather Summary for the Past Weeks

 TemperatureHumidityPressure
High86 °F (Sep 12, 4:00 PM)95% (Sep 16, 6:00 AM)30.34 "Hg (Sep 16, 6:00 AM)
Low44 °F (Sep 23, 7:00 AM)35% (Sep 13, 5:00 PM)29.75 "Hg (Sep 17, 6:00 AM)
Average64 °F68%30.04 "Hg
* Reported Sep 12 2:00 AM — Sep 27 2:00 AM, Klosterneuburg, Weather by CustomWeather, © 2016

Note: Actual official high and low records may vary slightly from our data, if they occured in-between our weather recording intervals... More about our weather records

Advertising

Klosterneuburg Weather History for the Previous 24 Hours

Scroll right to see more
 ConditionsComfort  
Time TempWeatherWind HumidityBarometerVisibility
2:00 AM
Tue, Sep 27
52 °FClear.2 mph90%30.22 "Hg12 mi
1:00 AM54 °FCool.3 mph86%30.21 "HgN/A
12:00 AM54 °FCool.1 mph88%30.21 "HgN/A
11:00 PM
Mon, Sep 26
55 °FClear.1 mph85%30.21 "Hg12 mi
10:00 PM57 °FCool.1 mph80%30.20 "HgN/A
9:00 PM57 °FCool.1 mph80%30.19 "HgN/A
8:00 PM59 °FCool.No wind76%30.18 "HgN/A
7:00 PM62 °FPassing clouds.1 mph69%30.16 "Hg12 mi
6:00 PM67 °FPassing clouds.2 mph58%30.15 "Hg17 mi
4:00 PM70 °FPartly sunny.3 mph50%30.14 "Hg12 mi
3:00 PM70 °FMild.2 mph50%30.15 "HgN/A
2:00 PM68 °FPassing clouds.1 mph54%30.16 "Hg11 mi
1:00 PM66 °FPassing clouds.2 mph57%30.17 "Hg8 mi
12:00 PM65 °FPartly sunny.2 mph60%30.18 "Hg8 mi
11:00 AM62 °FPartly sunny.1 mph65%30.19 "Hg8 mi
10:00 AM58 °FPartly sunny.1 mph72%30.20 "Hg9 mi
9:00 AM55 °FOvercast.1 mph78%30.20 "Hg10 mi
8:00 AM53 °FOvercast.1 mph83%30.18 "Hg10 mi
7:00 AM51 °FOvercast.2 mph88%30.18 "Hg12 mi
6:00 AM52 °FPassing clouds.2 mph86%30.16 "Hg16 mi
5:00 AM53 °FCool.1 mph84%30.16 "HgN/A
4:00 AM53 °FCool.1 mph81%30.16 "HgN/A
Weather by CustomWeather, © 2016

See weather overviewHow to use our weather pages